Погода в Албуфейре

Португалия     37°05′34″N   8°14′48″W
темп.,
°C
ветер,
м/с
пор.,
м/с
влажн.,
%
обл.,
%
осадки,
мм/ч
давл.,
гПа
погр.,
м
24 июля, сб
сб2401:00+19ссз713740 0.0 1015312
04:00+18ссз612750 0.0 1014317
07:00+17ссз611740 0.0 1015324
10:00+22ссз56520 0.0 1015238
13:00+24з56530 0.0 1014457
16:00+26зсз910430 0.0 1013570
19:00+25сз911481 0.0 1013300
22:00+20сз711670 0.0 1015215
25 июля, вс
вс2501:00+19ссз712735 0.0 1015309
04:00+19ссз510720 0.0 1014313
07:00+18ссз49740 0.0 1015311
10:00+22сз56670 0.0 1016278
13:00+24з686823 0.0 1014529
16:00+25зсз1011630 0.0 1013586
19:00+23зсз9117117 0.0 1014434
22:00+21сз69840 0.0 1015200
26 июля, пн
пн2601:00+20сз58870 0.0 1015214
04:00+19сз46896 0.0 1014209
07:00+20ссз578297 0.0 1015280
10:00+22зсз45690 0.0 1015279
13:00+24з67600 0.0 1015538
16:00+26зсз1011480 0.0 1012714
19:00+25сз1012510 0.0 1012297
22:00+22сз813630 0.0 1014208
27 июля, вт
вт2701:00+20ссз915650 0.0 1014304
04:00+19ссз611720 0.0 1013254
07:00+18с58770 0.0 1014223
10:00+23с44600 0.0 1014170
13:00+22ююз54660 0.0 1014334
16:00+23юз44680 0.0 1013173
19:00+25з56600 0.0 1012269
22:00+23с711610 0.0 1013145
28 июля, ср
ср2801:00+21с711640 0.0 1013166
04:00+20с611640 0.0 1012187
07:00+19с610690 0.0 1013200
10:00+24с45550 0.0 1013167
13:00+23ю44620 0.0 1013355
16:00+24юз44630 0.0 1012170
19:00+26з55540 0.0 1011290
22:00+24ссз69530 0.0 1012112